QPF
0.00 0.00 0.00 0.00 0.00 0.00 0.00 0.00 0.00 0.00 0.00 0.00 0.00 0.00 0.00 0.00 0.00 0.00 0.00 0.00 0.00 0.00 0.01 0.01 0.01 0.01 0.01 0.01 0.00 0.00 0.00 0.00 0.00 0.00 0.00 0.00 0.00 0.00 0.00 0.00 0.01 0.01 0.01 0.01 0.01 0.00 0.00 0.00 0.00
0.00 0.00 0.00 0.00 0.00 0.00 0.00 0.00 0.00 0.00 0.00 0.00 0.00 0.00 0.00 0.00 0.00 0.00 0.00 0.00 0.00 0.00 0.01 0.01 0.01 0.01 0.01 0.01 0.00 0.00 0.00 0.00 0.00 0.00 0.00 0.00 0.00 0.00 0.00 0.00 0.00 0.00 0.00 0.00 0.00 0.00 0.00 0.00 0.00
0.00 0.00 0.00 0.00 0.00 0.00 0.00 0.00 0.00 0.00 0.00 0.00 0.00 0.00 0.00 0.00 0.00 0.00 0.00 0.00 0.00 0.00 0.01 0.01 0.01 0.01 0.01 0.00 0.00 0.00 0.00 0.00 0.00 0.00 0.00 0.01 0.01 0.00 0.00 0.00 0.00 0.00 0.00 0.00 0.00 0.00 0.00 0.00 0.00
0.00 0.00 0.00 0.00 0.00 0.00 0.00 0.00 0.00 0.00 0.00 0.00 0.00 0.00 0.00 0.00 0.00 0.00 0.00 0.00 0.00 0.00 0.01 0.01 0.01 0.01 0.01 0.00 0.00 0.00 0.00 0.00 0.00 0.00 0.00 0.01 0.01 0.00 0.00 0.00 0.00 0.00 0.00 0.00 0.00 0.00 0.00 0.00 0.00
0.01 0.01 0.01 0.00 0.00 0.00 0.00 0.00 0.00 0.00 0.00 0.00 0.00 0.00 0.00 0.00 0.00 0.00 0.00 0.00 0.00 0.00 0.01 0.02 0.02 0.01 0.01 0.00 0.00 0.00 0.00 0.00 0.00 0.00 0.01 0.01 0.01 0.00 0.00 0.00 0.00 0.00 0.00 0.00 0.00 0.00 0.00 0.00 0.00
0.04 0.02 0.02 0.00 0.00 0.00 0.00 0.00 0.00 0.00 0.00 0.00 0.00 0.00 0.00 0.00 0.00 0.00 0.00 0.00 0.00 0.00 0.01 0.02 0.02 0.01 0.01 0.00 0.00 0.00 0.00 0.00 0.00 0.00 0.01 0.01 0.01 0.00 0.00 0.00 0.00 0.00 0.00 0.00 0.00 0.00 0.00 0.00 0.00
0.05 0.04 0.02 0.00 0.00 0.00 0.00 0.00 0.00 0.00 0.00 0.00 0.00 0.00 0.00 0.01 0.01 0.01 0.01 0.01 0.01 0.01 0.01 0.02 0.02 0.02 0.01 0.00 0.00 0.00 0.00 0.00 0.00 0.00 0.00 0.01 0.00 0.00 0.00 0.00 0.00 0.00 0.00 0.00 0.00 0.00 0.00 0.00 0.00
0.04 0.07 0.03 0.00 0.00 0.00 0.00 0.00 0.00 0.00 0.00 0.00 0.00 0.00 0.00 0.01 0.01 0.01 0.01 0.02 0.02 0.02 0.02 0.02 0.02 0.02 0.02 0.01 0.00 0.00 0.00 0.00 0.00 0.00 0.00 0.00 0.00 0.00 0.00 0.00 0.00 0.00 0.00 0.00 0.00 0.00 0.00 0.00 0.00
0.03 0.07 0.05 0.01 0.00 0.00 0.00 0.00 0.00 0.00 0.00 0.00 0.00 0.00 0.00 0.01 0.02 0.02 0.02 0.03 0.03 0.02 0.02 0.02 0.02 0.02 0.02 0.01 0.01 0.00 0.00 0.00 0.00 0.00 0.00 0.00 0.00 0.00 0.00 0.00 0.00 0.00 0.00 0.00 0.00 0.00 0.00 0.00 0.00
0.04 0.04 0.02 0.00 0.00 0.00 0.00 0.00 0.00 0.00 0.00 0.00 0.00 0.00 0.01 0.03 0.03 0.03 0.02 0.02 0.02 0.02 0.02 0.02 0.02 0.02 0.02 0.01 0.01 0.01 0.00 0.00 0.00 0.00 0.00 0.00 0.00 0.00 0.00 0.00 0.00 0.00 0.00 0.00 0.00 0.00 0.00 0.00 0.00
0.02 0.02 0.01 0.00 0.00 0.00 0.00 0.00 0.00 0.00 0.00 0.00 0.00 0.00 0.02 0.04 0.04 0.03 0.02 0.01 0.01 0.01 0.02 0.02 0.02 0.02 0.02 0.02 0.01 0.01 0.00 0.00 0.00 0.00 0.00 0.00 0.00 0.00 0.00 0.00 0.00 0.00 0.00 0.00 0.00 0.00 0.00 0.00 0.00
0.02 0.01 0.01 0.00 0.00 0.00 0.00 0.00 0.00 0.00 0.00 0.00 0.00 0.00 0.01 0.03 0.04 0.04 0.02 0.02 0.01 0.01 0.01 0.01 0.01 0.02 0.02 0.02 0.01 0.01 0.00 0.00 0.00 0.00 0.00 0.00 0.00 0.00 0.00 0.00 0.00 0.00 0.00 0.00 0.00 0.00 0.00 0.00 0.00
0.02 0.01 0.01 0.01 0.01 0.01 0.01 0.00 0.00 0.00 0.00 0.00 0.00 0.00 0.01 0.02 0.03 0.04 0.04 0.06 0.04 0.03 0.02 0.02 0.02 0.01 0.02 0.02 0.01 0.01 0.00 0.00 0.00 0.00 0.00 0.00 0.00 0.00 0.00 0.00 0.00 0.00 0.00 0.00 0.00 0.00 0.00 0.00 0.00
0.01 0.01 0.01 0.01 0.01 0.01 0.01 0.00 0.00 0.00 0.00 0.00 0.00 0.01 0.02 0.03 0.03 0.05 0.05 0.06 0.05 0.04 0.04 0.03 0.02 0.02 0.01 0.01 0.01 0.01 0.00 0.00 0.00 0.00 0.00 0.00 0.00 0.00 0.00 0.00 0.00 0.00 0.00 0.00 0.00 0.00 0.00 0.00 0.00
0.02 0.03 0.02 0.01 0.01 0.01 0.01 0.01 0.00 0.00 0.00 0.00 0.00 0.00 0.01 0.02 0.03 0.03 0.05 0.06 0.06 0.07 0.05 0.04 0.03 0.03 0.02 0.01 0.01 0.01 0.01 0.00 0.00 0.00 0.00 0.00 0.00 0.00 0.00 0.00 0.00 0.00 0.00 0.00 0.00 0.00 0.00 0.00 0.00
0.04 0.04 0.03 0.01 0.01 0.01 0.01 0.01 0.00 0.00 0.00 0.00 0.00 0.00 0.00 0.01 0.02 0.03 0.04 0.05 0.08 0.08 0.06 0.05 0.04 0.03 0.03 0.02 0.01 0.01 0.01 0.00 0.00 0.00 0.00 0.00 0.00 0.00 0.00 0.00 0.00 0.00 0.00 0.00 0.00 0.00 0.00 0.00 0.00
0.05 0.04 0.02 0.01 0.00 0.01 0.01 0.00 0.00 0.00 0.00 0.00 0.00 0.00 0.00 0.00 0.01 0.01 0.02 0.04 0.06 0.07 0.07 0.06 0.05 0.04 0.05 0.04 0.03 0.02 0.01 0.01 0.01 0.00 0.00 0.00 0.00 0.00 0.00 0.00 0.00 0.00 0.00 0.00 0.00 0.00 0.00 0.00 0.00
0.02 0.02 0.01 0.01 0.00 0.00 0.00 0.00 0.00 0.00 0.00 0.00 0.00 0.00 0.00 0.00 0.00 0.01 0.01 0.03 0.04 0.06 0.08 0.07 0.08 0.08 0.07 0.06 0.04 0.02 0.01 0.01 0.01 0.01 0.00 0.00 0.00 0.00 0.00 0.00 0.01 0.01 0.00 0.00 0.00 0.00 0.00 0.00 0.00
0.03 0.01 0.01 0.01 0.00 0.00 0.00 0.00 0.00 0.00 0.00 0.00 0.00 0.00 0.00 0.00 0.00 0.00 0.01 0.02 0.03 0.04 0.05 0.06 0.06 0.07 0.07 0.06 0.05 0.03 0.02 0.02 0.02 0.02 0.02 0.01 0.01 0.01 0.01 0.01 0.01 0.01 0.01 0.01 0.00 0.00 0.00 0.00 0.00
0.04 0.03 0.01 0.01 0.00 0.00 0.00 0.00 0.00 0.00 0.00 0.00 0.00 0.00 0.00 0.00 0.00 0.00 0.00 0.01 0.01 0.02 0.03 0.04 0.05 0.07 0.06 0.06 0.06 0.05 0.04 0.03 0.02 0.02 0.02 0.02 0.02 0.02 0.01 0.01 0.01 0.01 0.01 0.01 0.00 0.00 0.00 0.00 0.00
0.03 0.03 0.01 0.01 0.00 0.00 0.00 0.00 0.00 0.00 0.00 0.00 0.00 0.00 0.00 0.00 0.00 0.00 0.01 0.01 0.01 0.01 0.02 0.03 0.05 0.06 0.06 0.06 0.06 0.06 0.05 0.03 0.02 0.02 0.02 0.02 0.01 0.01 0.01 0.01 0.01 0.01 0.01 0.01 0.01 0.01 0.01 0.01 0.01
0.02 0.02 0.02 0.01 0.01 0.01 0.00 0.00 0.00 0.00 0.00 0.00 0.00 0.00 0.00 0.00 0.00 0.00 0.00 0.01 0.01 0.01 0.01 0.02 0.03 0.03 0.03 0.04 0.05 0.05 0.05 0.03 0.03 0.02 0.02 0.01 0.01 0.01 0.00 0.01 0.01 0.01 0.01 0.01 0.01 0.02 0.02 0.02 0.02
0.02 0.02 0.03 0.02 0.02 0.01 0.00 0.00 0.00 0.00 0.00 0.00 0.00 0.00 0.00 0.00 0.00 0.00 0.00 0.00 0.00 0.00 0.00 0.01 0.01 0.01 0.02 0.02 0.03 0.03 0.03 0.02 0.02 0.01 0.01 0.01 0.01 0.00 0.00 0.01 0.01 0.01 0.01 0.01 0.02 0.02 0.02 0.02 0.01
0.02 0.03 0.04 0.03 0.04 0.02 0.00 0.00 0.00 0.00 0.00 0.00 0.00 0.00 0.00 0.00 0.00 0.00 0.00 0.00 0.00 0.00 0.00 0.00 0.00 0.01 0.01 0.01 0.01 0.01 0.02 0.01 0.01 0.01 0.01 0.01 0.00 0.00 0.00 0.00 0.00 0.00 0.00 0.01 0.00 0.01 0.01 0.01 0.01
0.03 0.06 0.08 0.08 0.07 0.02 0.00 0.00 0.00 0.00 0.00 0.00 0.00 0.00 0.00 0.00 0.00 0.00 0.00 0.00 0.00 0.00 0.00 0.00 0.00 0.01 0.01 0.01 0.00 0.00 0.01 0.00 0.00 0.00 0.00 0.00 0.00 0.00 0.00 0.00 0.00 0.00 0.00 0.00 0.00 0.00 0.00 0.00 0.01
0.02 0.04 0.05 0.05 0.03 0.01 0.00 0.00 0.00 0.00 0.00 0.00 0.00 0.00 0.00 0.00 0.00 0.00 0.00 0.00 0.00 0.00 0.00 0.00 0.00 0.00 0.00 0.00 0.00 0.00 0.00 0.00 0.00 0.00 0.00 0.00 0.00 0.00 0.00 0.00 0.00 0.00 0.00 0.00 0.00 0.00 0.00 0.00 0.00
0.02 0.02 0.02 0.03 0.02 0.00 0.00 0.00 0.00 0.00 0.00 0.00 0.00 0.00 0.00 0.00 0.00 0.00 0.00 0.00 0.00 0.00 0.00 0.00 0.00 0.00 0.00 0.00 0.00 0.00 0.00 0.00 0.00 0.00 0.00 0.00 0.00 0.00 0.00 0.00 0.00 0.00 0.00 0.00 0.00 0.00 0.00 0.00 0.00
0.03 0.03 0.02 0.03 0.02 0.01 0.00 0.00 0.00 0.00 0.00 0.00 0.00 0.00 0.00 0.00 0.00 0.00 0.00 0.00 0.00 0.00 0.00 0.00 0.00 0.00 0.00 0.00 0.00 0.00 0.00 0.00 0.00 0.00 0.00 0.00 0.00 0.00 0.00 0.00 0.00 0.00 0.00 0.00 0.00 0.00 0.00 0.00 0.00
0.03 0.04 0.03 0.02 0.01 0.01 0.00 0.00 0.00 0.00 0.00 0.00 0.00 0.00 0.00 0.00 0.00 0.00 0.00 0.00 0.00 0.00 0.00 0.00 0.00 0.00 0.00 0.00 0.00 0.00 0.00 0.00 0.00 0.00 0.00 0.00 0.00 0.00 0.00 0.00 0.00 0.00 0.00 0.00 0.00 0.00 0.00 0.00 0.00
0.02 0.02 0.03 0.04 0.02 0.01 0.00 0.00 0.00 0.00 0.00 0.00 0.00 0.00 0.00 0.00 0.00 0.00 0.00 0.00 0.00 0.00 0.00 0.00 0.00 0.00 0.00 0.00 0.00 0.00 0.00 0.00 0.00 0.00 0.00 0.00 0.00 0.00 0.00 0.00 0.00 0.00 0.00 0.00 0.00 0.00 0.00 0.00 0.00
MSLP
1015.70 1015.84 1016.12 1016.46 1016.79 1017.03 1017.10 1017.00 1016.72 1016.32 1015.89 1015.49 1015.18 1014.99 1014.91 1014.90 1014.93 1014.96 1014.98 1015.01 1015.08 1015.24 1015.52 1015.95 1016.49 1017.10 1017.70 1018.22 1018.61 1018.85 1018.94 1018.93 1018.88 1018.84 1018.87 1018.95 1019.09 1019.25 1019.39 1019.49 1019.55 1019.57 1019.58 1019.63 1019.71 1019.85 1020.01 1020.18 1020.31
1015.83 1016.03 1016.33 1016.66 1016.96 1017.13 1017.14 1016.96 1016.62 1016.17 1015.71 1015.29 1014.98 1014.78 1014.70 1014.69 1014.72 1014.75 1014.79 1014.83 1014.94 1015.14 1015.48 1015.96 1016.55 1017.21 1017.85 1018.40 1018.81 1019.06 1019.17 1019.18 1019.16 1019.15 1019.20 1019.32 1019.48 1019.65 1019.80 1019.90 1019.95 1019.97 1019.98 1020.02 1020.10 1020.23 1020.40 1020.55 1020.67
1016.04 1016.26 1016.56 1016.85 1017.08 1017.17 1017.09 1016.84 1016.45 1015.98 1015.51 1015.10 1014.80 1014.63 1014.57 1014.58 1014.62 1014.67 1014.71 1014.78 1014.91 1015.15 1015.53 1016.05 1016.68 1017.36 1018.01 1018.57 1018.99 1019.26 1019.38 1019.42 1019.43 1019.46 1019.55 1019.69 1019.87 1020.06 1020.21 1020.30 1020.35 1020.35 1020.35 1020.39 1020.46 1020.59 1020.75 1020.90 1021.00
1016.26 1016.49 1016.76 1016.99 1017.14 1017.14 1016.98 1016.67 1016.24 1015.77 1015.32 1014.95 1014.71 1014.59 1014.56 1014.60 1014.66 1014.72 1014.78 1014.87 1015.02 1015.28 1015.68 1016.21 1016.85 1017.53 1018.18 1018.74 1019.15 1019.42 1019.56 1019.62 1019.67 1019.74 1019.86 1020.04 1020.24 1020.44 1020.59 1020.69 1020.72 1020.72 1020.71 1020.74 1020.81 1020.94 1021.09 1021.23 1021.32
1016.45 1016.67 1016.89 1017.06 1017.12 1017.04 1016.82 1016.46 1016.03 1015.59 1015.19 1014.89 1014.72 1014.66 1014.68 1014.76 1014.84 1014.92 1014.99 1015.08 1015.24 1015.50 1015.90 1016.43 1017.05 1017.71 1018.34 1018.87 1019.27 1019.54 1019.69 1019.77 1019.85 1019.96 1020.12 1020.33 1020.56 1020.78 1020.94 1021.04 1021.08 1021.07 1021.07 1021.09 1021.16 1021.27 1021.42 1021.55 1021.63
1016.54 1016.74 1016.91 1017.02 1017.01 1016.88 1016.62 1016.26 1015.86 1015.47 1015.15 1014.94 1014.84 1014.86 1014.94 1015.05 1015.15 1015.23 1015.30 1015.39 1015.53 1015.79 1016.16 1016.66 1017.25 1017.87 1018.46 1018.96 1019.34 1019.60 1019.76 1019.87 1019.97 1020.11 1020.31 1020.55 1020.81 1021.05 1021.23 1021.35 1021.39 1021.40 1021.40 1021.42 1021.49 1021.60 1021.73 1021.85 1021.92
1016.53 1016.70 1016.83 1016.89 1016.85 1016.69 1016.43 1016.10 1015.75 1015.44 1015.21 1015.09 1015.08 1015.17 1015.30 1015.44 1015.55 1015.63 1015.68 1015.75 1015.87 1016.09 1016.43 1016.89 1017.43 1018.00 1018.55 1019.02 1019.38 1019.63 1019.79 1019.91 1020.04 1020.21 1020.44 1020.71 1020.99 1021.25 1021.46 1021.59 1021.66 1021.68 1021.70 1021.73 1021.80 1021.90 1022.02 1022.12 1022.17
1016.42 1016.57 1016.68 1016.72 1016.67 1016.52 1016.29 1016.02 1015.74 1015.52 1015.38 1015.35 1015.41 1015.54 1015.71 1015.87 1015.98 1016.05 1016.08 1016.12 1016.20 1016.38 1016.67 1017.08 1017.57 1018.10 1018.60 1019.04 1019.38 1019.63 1019.80 1019.94 1020.09 1020.28 1020.52 1020.80 1021.10 1021.38 1021.60 1021.76 1021.85 1021.90 1021.93 1021.97 1022.04 1022.14 1022.24 1022.32 1022.36
1016.27 1016.41 1016.51 1016.56 1016.52 1016.41 1016.24 1016.04 1015.84 1015.69 1015.63 1015.66 1015.77 1015.93 1016.12 1016.28 1016.39 1016.44 1016.45 1016.45 1016.51 1016.64 1016.88 1017.23 1017.67 1018.15 1018.62 1019.03 1019.37 1019.62 1019.80 1019.96 1020.12 1020.32 1020.56 1020.85 1021.15 1021.43 1021.66 1021.83 1021.95 1022.02 1022.07 1022.12 1022.19 1022.28 1022.37 1022.43 1022.44
1016.15 1016.28 1016.39 1016.46 1016.47 1016.41 1016.30 1016.16 1016.03 1015.94 1015.92 1015.98 1016.10 1016.28 1016.46 1016.61 1016.71 1016.75 1016.74 1016.73 1016.75 1016.84 1017.03 1017.34 1017.73 1018.17 1018.61 1019.01 1019.34 1019.60 1019.80 1019.97 1020.15 1020.34 1020.58 1020.85 1021.13 1021.40 1021.63 1021.82 1021.94 1022.03 1022.10 1022.16 1022.23 1022.31 1022.37 1022.41 1022.40
1016.08 1016.21 1016.34 1016.45 1016.51 1016.51 1016.46 1016.38 1016.29 1016.22 1016.20 1016.25 1016.37 1016.52 1016.69 1016.83 1016.92 1016.95 1016.95 1016.92 1016.92 1016.98 1017.14 1017.39 1017.74 1018.15 1018.57 1018.96 1019.30 1019.58 1019.80 1019.98 1020.16 1020.35 1020.56 1020.81 1021.06 1021.31 1021.53 1021.70 1021.84 1021.94 1022.01 1022.08 1022.15 1022.21 1022.26 1022.28 1022.25
1016.10 1016.23 1016.38 1016.53 1016.63 1016.69 1016.69 1016.63 1016.55 1016.47 1016.43 1016.44 1016.51 1016.63 1016.77 1016.90 1017.00 1017.04 1017.05 1017.03 1017.02 1017.07 1017.19 1017.41 1017.72 1018.10 1018.50 1018.89 1019.24 1019.53 1019.77 1019.97 1020.14 1020.31 1020.51 1020.71 1020.93 1021.15 1021.34 1021.51 1021.64 1021.75 1021.83 1021.91 1021.97 1022.02 1022.06 1022.05 1022.01
1016.17 1016.31 1016.48 1016.65 1016.81 1016.90 1016.92 1016.88 1016.78 1016.66 1016.56 1016.51 1016.52 1016.59 1016.71 1016.84 1016.95 1017.02 1017.06 1017.06 1017.07 1017.11 1017.21 1017.40 1017.68 1018.02 1018.40 1018.79 1019.14 1019.45 1019.70 1019.90 1020.07 1020.23 1020.39 1020.57 1020.75 1020.93 1021.10 1021.25 1021.39 1021.49 1021.58 1021.66 1021.72 1021.77 1021.79 1021.78 1021.72
1016.26 1016.39 1016.57 1016.78 1016.96 1017.08 1017.11 1017.05 1016.91 1016.74 1016.57 1016.44 1016.39 1016.42 1016.52 1016.66 1016.80 1016.92 1017.00 1017.04 1017.07 1017.12 1017.21 1017.37 1017.61 1017.92 1018.27 1018.64 1019.00 1019.31 1019.57 1019.78 1019.95 1020.09 1020.23 1020.37 1020.51 1020.67 1020.82 1020.97 1021.10 1021.21 1021.30 1021.38 1021.44 1021.49 1021.50 1021.49 1021.43
1016.31 1016.43 1016.62 1016.84 1017.04 1017.17 1017.20 1017.12 1016.94 1016.70 1016.46 1016.26 1016.15 1016.15 1016.24 1016.39 1016.58 1016.75 1016.89 1016.99 1017.05 1017.11 1017.19 1017.32 1017.53 1017.80 1018.12 1018.48 1018.82 1019.13 1019.39 1019.60 1019.75 1019.88 1020.00 1020.12 1020.24 1020.38 1020.53 1020.67 1020.80 1020.92 1021.02 1021.11 1021.17 1021.21 1021.23 1021.22 1021.17
1016.29 1016.40 1016.59 1016.82 1017.03 1017.17 1017.19 1017.08 1016.85 1016.55 1016.25 1015.99 1015.84 1015.81 1015.91 1016.09 1016.33 1016.57 1016.77 1016.91 1017.01 1017.08 1017.16 1017.27 1017.44 1017.67 1017.96 1018.29 1018.61 1018.91 1019.16 1019.36 1019.51 1019.63 1019.73 1019.84 1019.95 1020.09 1020.23 1020.38 1020.53 1020.65 1020.76 1020.85 1020.92 1020.96 1020.98 1020.98 1020.94
1016.21 1016.30 1016.49 1016.73 1016.95 1017.08 1017.09 1016.95 1016.69 1016.34 1015.98 1015.68 1015.50 1015.46 1015.57 1015.79 1016.07 1016.37 1016.63 1016.82 1016.96 1017.04 1017.12 1017.21 1017.35 1017.55 1017.80 1018.09 1018.39 1018.67 1018.91 1019.10 1019.24 1019.35 1019.44 1019.54 1019.66 1019.80 1019.96 1020.12 1020.27 1020.41 1020.53 1020.62 1020.68 1020.73 1020.75 1020.76 1020.74
1016.12 1016.19 1016.37 1016.61 1016.82 1016.95 1016.95 1016.78 1016.48 1016.09 1015.70 1015.36 1015.16 1015.12 1015.24 1015.49 1015.81 1016.16 1016.47 1016.71 1016.88 1016.98 1017.06 1017.14 1017.26 1017.43 1017.65 1017.91 1018.19 1018.44 1018.66 1018.83 1018.96 1019.06 1019.16 1019.26 1019.39 1019.53 1019.70 1019.88 1020.04 1020.19 1020.31 1020.40 1020.46 1020.50 1020.52 1020.53 1020.53
1016.06 1016.12 1016.29 1016.52 1016.73 1016.84 1016.81 1016.62 1016.28 1015.86 1015.42 1015.07 1014.84 1014.80 1014.92 1015.19 1015.55 1015.94 1016.29 1016.56 1016.76 1016.89 1016.97 1017.05 1017.16 1017.31 1017.52 1017.75 1018.00 1018.24 1018.44 1018.59 1018.71 1018.81 1018.90 1019.01 1019.14 1019.30 1019.48 1019.67 1019.84 1019.98 1020.09 1020.17 1020.22 1020.25 1020.27 1020.28 1020.29
1016.09 1016.14 1016.30 1016.52 1016.70 1016.79 1016.72 1016.48 1016.11 1015.64 1015.18 1014.79 1014.55 1014.50 1014.63 1014.91 1015.28 1015.69 1016.07 1016.37 1016.60 1016.75 1016.85 1016.94 1017.05 1017.20 1017.40 1017.63 1017.86 1018.08 1018.26 1018.41 1018.52 1018.61 1018.71 1018.82 1018.96 1019.13 1019.31 1019.50 1019.66 1019.79 1019.89 1019.94 1019.97 1019.98 1019.99 1019.99 1020.01
1016.24 1016.29 1016.44 1016.63 1016.77 1016.81 1016.69 1016.40 1015.97 1015.46 1014.96 1014.54 1014.28 1014.21 1014.33 1014.61 1015.00 1015.42 1015.81 1016.14 1016.39 1016.57 1016.69 1016.81 1016.94 1017.10 1017.31 1017.53 1017.76 1017.97 1018.15 1018.29 1018.40 1018.49 1018.59 1018.71 1018.86 1019.03 1019.21 1019.38 1019.53 1019.63 1019.69 1019.71 1019.71 1019.69 1019.68 1019.68 1019.69
1016.49 1016.54 1016.67 1016.83 1016.92 1016.90 1016.71 1016.35 1015.85 1015.29 1014.75 1014.30 1014.01 1013.93 1014.04 1014.31 1014.70 1015.12 1015.53 1015.88 1016.15 1016.36 1016.52 1016.67 1016.83 1017.02 1017.23 1017.47 1017.70 1017.92 1018.10 1018.25 1018.37 1018.47 1018.58 1018.71 1018.86 1019.02 1019.19 1019.34 1019.45 1019.52 1019.54 1019.52 1019.48 1019.43 1019.40 1019.38 1019.39
1016.78 1016.84 1016.95 1017.06 1017.09 1016.99 1016.72 1016.28 1015.72 1015.11 1014.52 1014.05 1013.75 1013.65 1013.75 1014.02 1014.40 1014.83 1015.25 1015.62 1015.92 1016.16 1016.36 1016.55 1016.74 1016.95 1017.20 1017.45 1017.70 1017.93 1018.13 1018.29 1018.43 1018.55 1018.68 1018.82 1018.97 1019.13 1019.28 1019.40 1019.47 1019.50 1019.47 1019.40 1019.32 1019.24 1019.18 1019.15 1019.16
1017.05 1017.11 1017.21 1017.27 1017.22 1017.04 1016.68 1016.17 1015.55 1014.89 1014.27 1013.79 1013.48 1013.38 1013.49 1013.76 1014.15 1014.58 1015.02 1015.40 1015.73 1016.01 1016.24 1016.47 1016.69 1016.94 1017.21 1017.49 1017.76 1018.01 1018.23 1018.42 1018.59 1018.74 1018.89 1019.05 1019.20 1019.36 1019.49 1019.57 1019.61 1019.58 1019.51 1019.39 1019.27 1019.16 1019.08 1019.05 1019.05
1017.23 1017.30 1017.37 1017.37 1017.26 1016.99 1016.55 1015.98 1015.31 1014.63 1014.01 1013.53 1013.24 1013.15 1013.27 1013.56 1013.95 1014.40 1014.85 1015.26 1015.61 1015.92 1016.19 1016.45 1016.72 1017.00 1017.29 1017.59 1017.89 1018.16 1018.41 1018.63 1018.83 1019.02 1019.20 1019.38 1019.55 1019.70 1019.81 1019.86 1019.86 1019.79 1019.67 1019.51 1019.36 1019.23 1019.14 1019.10 1019.11
1017.29 1017.37 1017.40 1017.35 1017.16 1016.82 1016.32 1015.70 1015.01 1014.33 1013.73 1013.29 1013.03 1012.98 1013.13 1013.43 1013.84 1014.30 1014.77 1015.19 1015.58 1015.92 1016.23 1016.53 1016.83 1017.13 1017.45 1017.78 1018.09 1018.39 1018.66 1018.92 1019.15 1019.37 1019.59 1019.79 1019.97 1020.12 1020.22 1020.25 1020.21 1020.10 1019.95 1019.77 1019.59 1019.45 1019.36 1019.33 1019.35
1017.24 1017.31 1017.30 1017.19 1016.94 1016.53 1015.99 1015.36 1014.68 1014.03 1013.48 1013.09 1012.88 1012.88 1013.06 1013.39 1013.81 1014.28 1014.76 1015.21 1015.62 1015.99 1016.34 1016.68 1017.01 1017.35 1017.70 1018.04 1018.37 1018.69 1018.98 1019.26 1019.52 1019.77 1020.01 1020.24 1020.43 1020.59 1020.68 1020.69 1020.63 1020.50 1020.33 1020.13 1019.95 1019.81 1019.73 1019.72 1019.76
1017.11 1017.15 1017.09 1016.92 1016.61 1016.16 1015.61 1014.98 1014.33 1013.74 1013.26 1012.93 1012.79 1012.83 1013.05 1013.39 1013.82 1014.30 1014.78 1015.25 1015.69 1016.10 1016.49 1016.87 1017.25 1017.63 1018.00 1018.36 1018.71 1019.04 1019.35 1019.64 1019.92 1020.19 1020.45 1020.69 1020.90 1021.05 1021.14 1021.15 1021.08 1020.95 1020.76 1020.57 1020.40 1020.28 1020.22 1020.23 1020.29
1016.95 1016.93 1016.81 1016.58 1016.22 1015.74 1015.18 1014.58 1013.99 1013.47 1013.07 1012.82 1012.73 1012.82 1013.05 1013.39 1013.82 1014.29 1014.77 1015.25 1015.72 1016.17 1016.62 1017.06 1017.49 1017.91 1018.33 1018.72 1019.08 1019.42 1019.73 1020.02 1020.31 1020.58 1020.85 1021.09 1021.31 1021.47 1021.57 1021.58 1021.52 1021.39 1021.22 1021.05 1020.90 1020.80 1020.77 1020.80 1020.89
1016.75 1016.67 1016.49 1016.19 1015.79 1015.29 1014.75 1014.19 1013.67 1013.22 1012.89 1012.71 1012.67 1012.77 1013.00 1013.33 1013.74 1014.18 1014.66 1015.15 1015.64 1016.15 1016.66 1017.17 1017.67 1018.16 1018.62 1019.05 1019.43 1019.78 1020.09 1020.38 1020.65 1020.92 1021.18 1021.43 1021.65 1021.82 1021.92 1021.95 1021.91 1021.81 1021.67 1021.52 1021.41 1021.34 1021.34 1021.40 1021.51
Thickness
5668 5678 5686 5689 5686 5684 5692 5702 5712 5717 5725 5736 5741 5746 5753 5756 5755 5749 5758 5769 5767 5763 5757 5750 5748 5746 5744 5742 5741 5739 5738 5738 5737 5736 5735 5735 5734 5733 5732 5731 5731 5730 5729 5727 5726 5724 5722 5720 5718
5662 5671 5676 5677 5673 5675 5686 5700 5706 5716 5725 5732 5737 5743 5747 5752 5754 5752 5755 5762 5762 5759 5755 5750 5745 5743 5741 5740 5738 5737 5736 5735 5734 5733 5733 5732 5731 5730 5729 5728 5727 5726 5724 5723 5721 5719 5718 5716 5714
5655 5663 5665 5665 5666 5678 5686 5697 5706 5714 5723 5727 5732 5739 5743 5744 5749 5751 5755 5758 5758 5755 5752 5747 5742 5740 5739 5737 5735 5734 5733 5732 5731 5731 5730 5729 5728 5726 5725 5724 5723 5721 5720 5718 5717 5715 5714 5712 5710
5647 5651 5655 5657 5662 5677 5687 5695 5703 5710 5717 5724 5730 5731 5737 5740 5746 5752 5753 5754 5754 5752 5749 5743 5739 5737 5735 5734 5733 5731 5730 5730 5729 5728 5727 5726 5724 5723 5721 5720 5719 5717 5716 5714 5713 5711 5710 5708 5707
5638 5640 5640 5647 5661 5672 5683 5690 5698 5705 5711 5719 5725 5726 5729 5734 5742 5748 5748 5750 5750 5748 5745 5740 5736 5734 5732 5731 5730 5729 5728 5727 5726 5725 5724 5722 5721 5719 5718 5716 5715 5714 5712 5710 5709 5707 5706 5704 5703
5624 5630 5632 5644 5657 5666 5676 5684 5692 5699 5707 5713 5719 5721 5721 5727 5734 5740 5743 5744 5745 5743 5741 5737 5733 5731 5729 5728 5727 5726 5725 5724 5723 5722 5721 5719 5718 5716 5714 5713 5711 5710 5708 5707 5705 5704 5702 5700 5699
5617 5623 5632 5648 5653 5657 5668 5679 5686 5693 5699 5706 5714 5715 5714 5720 5727 5733 5736 5738 5738 5738 5737 5734 5731 5728 5726 5724 5723 5722 5721 5720 5719 5718 5717 5716 5714 5712 5710 5709 5708 5706 5704 5703 5701 5700 5698 5696 5694
5617 5619 5625 5639 5647 5652 5665 5672 5680 5688 5692 5701 5708 5709 5709 5714 5721 5726 5728 5730 5732 5732 5733 5732 5729 5727 5724 5722 5720 5719 5718 5717 5716 5715 5713 5712 5710 5708 5707 5706 5704 5702 5701 5699 5697 5696 5694 5692 5691
5608 5606 5616 5633 5643 5650 5660 5664 5671 5681 5687 5692 5698 5703 5708 5712 5715 5716 5718 5720 5723 5726 5728 5728 5726 5724 5723 5721 5717 5715 5714 5713 5712 5711 5709 5708 5708 5707 5704 5703 5700 5699 5697 5696 5694 5692 5690 5689 5687
5597 5602 5620 5635 5643 5648 5652 5658 5664 5671 5676 5681 5688 5695 5702 5705 5707 5709 5711 5714 5717 5720 5722 5724 5722 5721 5719 5717 5715 5714 5713 5711 5711 5710 5708 5708 5707 5705 5702 5699 5697 5695 5694 5692 5691 5689 5687 5687 5687
5595 5606 5619 5624 5634 5640 5643 5649 5657 5662 5665 5674 5680 5687 5693 5697 5700 5703 5707 5711 5714 5717 5717 5719 5718 5717 5716 5714 5713 5712 5711 5709 5709 5708 5706 5705 5703 5701 5699 5698 5695 5694 5692 5691 5689 5687 5687 5686 5684
5590 5600 5610 5616 5621 5628 5634 5641 5648 5654 5662 5671 5677 5683 5687 5690 5694 5698 5701 5705 5709 5711 5712 5714 5713 5713 5712 5711 5710 5709 5708 5707 5706 5704 5703 5702 5701 5699 5698 5696 5695 5693 5691 5689 5688 5686 5685 5683 5682
5584 5591 5600 5607 5613 5620 5626 5633 5640 5649 5658 5665 5671 5675 5680 5685 5689 5694 5698 5701 5703 5705 5707 5709 5709 5709 5707 5707 5706 5705 5704 5703 5703 5700 5699 5698 5697 5697 5695 5694 5691 5690 5689 5687 5685 5684 5683 5681 5680
5579 5586 5591 5598 5605 5611 5616 5625 5631 5644 5652 5658 5663 5668 5674 5679 5684 5688 5692 5694 5697 5700 5703 5704 5704 5704 5703 5703 5702 5702 5701 5699 5698 5697 5696 5694 5694 5693 5691 5690 5689 5688 5686 5685 5683 5682 5680 5679 5677
5574 5576 5582 5589 5598 5604 5608 5613 5628 5642 5646 5651 5657 5663 5667 5673 5679 5683 5688 5691 5694 5696 5698 5699 5699 5699 5699 5699 5698 5697 5696 5696 5695 5693 5692 5691 5690 5688 5687 5687 5686 5685 5683 5681 5679 5678 5676 5674 5673
5564 5567 5571 5582 5591 5597 5598 5608 5632 5637 5638 5644 5652 5658 5662 5667 5673 5678 5683 5686 5689 5691 5692 5694 5694 5694 5694 5694 5693 5693 5692 5692 5691 5690 5689 5687 5686 5685 5683 5683 5682 5681 5679 5677 5676 5674 5672 5671 5670
5552 5560 5570 5576 5586 5593 5597 5609 5625 5629 5631 5638 5647 5653 5658 5662 5667 5672 5675 5679 5682 5685 5687 5688 5688 5688 5688 5688 5687 5687 5687 5686 5686 5685 5684 5683 5682 5681 5679 5679 5678 5677 5675 5673 5671 5670 5669 5667 5666
5552 5562 5567 5573 5581 5587 5593 5605 5614 5620 5625 5634 5642 5648 5651 5656 5661 5665 5668 5671 5674 5677 5680 5681 5681 5682 5682 5681 5680 5680 5680 5680 5680 5679 5678 5678 5677 5676 5675 5674 5673 5672 5670 5669 5667 5666 5664 5662 5660
5551 5557 5562 5569 5576 5580 5588 5596 5606 5614 5620 5628 5635 5642 5647 5651 5655 5657 5660 5663 5666 5669 5671 5673 5674 5674 5674 5674 5673 5673 5673 5674 5673 5672 5672 5672 5671 5671 5670 5669 5668 5667 5666 5665 5664 5662 5659 5656 5654
5543 5548 5556 5561 5568 5575 5582 5590 5603 5610 5616 5624 5631 5638 5643 5646 5647 5648 5651 5655 5659 5661 5663 5664 5665 5666 5667 5667 5667 5667 5667 5666 5666 5665 5664 5664 5664 5663 5663 5663 5663 5661 5660 5659 5658 5655 5652 5651 5648
5537 5545 5551 5557 5562 5569 5574 5583 5597 5608 5613 5619 5626 5633 5638 5641 5643 5645 5645 5647 5650 5652 5654 5655 5656 5657 5658 5658 5658 5658 5657 5657 5657 5657 5656 5655 5655 5656 5656 5656 5655 5655 5653 5652 5651 5649 5646 5645 5644
5532 5540 5545 5550 5556 5563 5568 5577 5599 5606 5608 5614 5622 5628 5633 5635 5637 5638 5638 5640 5641 5641 5642 5644 5646 5647 5648 5649 5650 5651 5651 5650 5650 5649 5648 5647 5647 5647 5647 5647 5647 5647 5646 5645 5644 5642 5640 5638 5636
5531 5535 5540 5546 5552 5557 5562 5568 5595 5601 5603 5614 5621 5626 5629 5630 5630 5630 5630 5630 5631 5631 5631 5634 5635 5637 5637 5639 5640 5642 5642 5641 5640 5639 5639 5639 5638 5637 5637 5637 5637 5637 5637 5636 5635 5634 5632 5630 5629
5528 5531 5533 5538 5544 5546 5565 5565 5586 5601 5608 5615 5619 5622 5623 5623 5622 5622 5622 5620 5620 5620 5621 5623 5624 5625 5626 5628 5629 5631 5631 5630 5629 5629 5629 5629 5629 5627 5627 5627 5627 5627 5627 5626 5625 5624 5623 5621 5620
5524 5526 5528 5530 5536 5552 5563 5563 5585 5603 5606 5608 5611 5614 5615 5614 5613 5613 5612 5611 5611 5611 5611 5612 5614 5614 5614 5616 5617 5618 5619 5619 5620 5619 5619 5619 5619 5618 5616 5616 5616 5616 5615 5615 5614 5614 5612 5611 5609
5523 5528 5533 5539 5546 5555 5550 5562 5589 5597 5597 5597 5599 5602 5603 5605 5606 5606 5605 5604 5603 5602 5602 5603 5603 5603 5603 5604 5604 5605 5605 5606 5606 5606 5606 5607 5606 5605 5604 5604 5604 5604 5603 5603 5603 5602 5601 5598 5597
5520 5525 5530 5533 5536 5543 5557 5568 5579 5589 5589 5590 5594 5595 5598 5598 5598 5598 5597 5596 5595 5593 5593 5594 5593 5592 5592 5592 5592 5592 5592 5592 5592 5592 5592 5592 5592 5591 5591 5591 5591 5591 5591 5591 5591 5590 5588 5586 5584
5519 5525 5521 5523 5531 5543 5558 5564 5577 5585 5587 5589 5590 5591 5592 5591 5590 5590 5589 5587 5586 5584 5583 5583 5583 5582 5581 5580 5580 5579 5579 5579 5579 5579 5579 5579 5579 5578 5578 5578 5578 5578 5578 5578 5577 5576 5575 5573 5570
5513 5515 5521 5527 5532 5540 5552 5568 5578 5580 5580 5582 5584 5585 5584 5584 5584 5582 5581 5579 5577 5575 5573 5572 5572 5571 5570 5569 5568 5567 5567 5566 5566 5566 5566 5565 5565 5565 5565 5565 5565 5565 5565 5565 5565 5563 5562 5560 5557
5519 5521 5521 5522 5525 5531 5543 5562 5572 5570 5570 5571 5575 5575 5575 5576 5576 5574 5572 5570 5568 5566 5565 5563 5562 5561 5559 5557 5556 5555 5554 5553 5553 5553 5552 5552 5552 5552 5552 5552 5552 5552 5552 5551 5551 5550 5548 5547 5544